Theta_e
301 301 302 302 302 302 302 302 303 303 304 304 305 307 310 313 315 316 316 316 316 316 316 316 316 316 316 316 315 315 315 315 316 315 314 313 314 314 313 312 312 312 312
300 301 301 301 301 302 302 302 302 302 302 303 303 304 305 307 310 313 314 315 315 316 316 316 316 316 316 315 315 315 315 315 315 316 316 315 314 314 313 313 314 313 312
299 300 300 300 301 301 301 301 301 302 302 302 302 303 303 304 306 307 309 312 314 314 315 315 316 316 316 316 315 315 315 315 315 315 315 315 316 315 314 314 313 313 313
298 299 299 299 300 300 300 301 301 301 301 301 302 302 302 302 303 304 306 307 308 310 312 314 314 315 315 315 316 316 315 315 315 315 315 315 315 316 315 314 314 314 313
297 297 297 297 298 298 299 299 299 300 300 301 301 301 302 302 301 302 304 305 306 307 308 310 311 313 313 313 314 315 315 315 315 315 315 315 315 316 316 314 313 314 314
295 295 295 294 295 295 296 297 298 298 298 298 299 299 300 300 300 299 301 304 305 306 306 306 308 309 311 312 312 311 312 314 315 315 315 316 316 316 316 316 314 316 318
294 293 293 293 293 293 293 294 294 295 296 296 297 297 298 299 299 300 300 302 304 304 305 305 306 306 307 309 311 312 312 312 312 313 314 315 315 315 315 316 315 314 315
292 293 293 293 292 293 293 293 294 294 295 295 296 297 298 298 298 299 301 301 302 303 304 304 304 305 305 305 305 308 311 312 313 313 314 314 314 314 314 314 314 314 314
292 292 291 291 292 291 292 293 293 293 294 295 295 296 296 297 298 299 300 301 301 302 303 303 303 303 303 301 302 304 306 308 310 311 311 311 311 311 313 314 314 314 314
289 289 289 289 290 290 291 291 291 292 293 294 294 295 296 297 297 296 296 297 297 297 298 300 302 302 301 300 301 303 304 305 306 307 307 308 309 311 311 310 312 314 314
288 288 288 289 289 290 290 290 291 292 292 293 293 294 294 295 295 295 295 295 296 297 299 298 299 299 300 300 300 301 302 303 303 304 305 306 307 309 310 311 312 313 314
287 287 288 288 288 288 289 290 291 291 291 291 291 292 292 292 292 292 292 293 294 295 296 296 297 296 297 298 299 301 301 302 303 304 305 306 306 307 309 310 310 311 313
287 287 287 287 287 287 288 288 289 289 289 289 289 289 289 289 289 289 289 290 291 292 293 294 295 296 298 298 298 299 300 302 302 303 304 304 305 306 307 309 309 310 311
287 286 287 286 286 286 286 287 287 288 288 288 288 288 288 288 288 288 288 288 288 289 291 293 293 292 292 292 292 293 295 297 300 302 302 303 304 305 306 307 309 310 311
286 286 286 286 286 286 286 286 286 286 287 287 287 287 287 287 287 287 287 287 287 288 288 289 288 289 289 289 289 289 290 290 291 291 294 300 302 303 304 305 306 307 307
286 286 285 286 285 285 285 286 285 284 284 285 285 285 285 286 286 286 286 286 286 286 286 286 286 287 287 287 287 288 288 289 289 290 290 291 293 298 302 303 303 304 304
285 285 285 285 285 284 284 284 284 284 283 283 284 284 284 284 284 284 284 284 285 285 285 285 285 285 285 285 285 286 287 287 288 288 288 289 289 290 292 296 302 303 303
283 284 283 284 284 284 283 283 283 283 283 283 282 283 283 282 283 283 283 283 283 283 283 284 284 284 284 284 284 285 285 286 286 287 287 288 288 289 289 290 291 295 301
282 283 283 282 282 282 282 282 282 282 282 282 282 282 283 282 282 282 282 282 282 282 282 282 283 283 283 284 284 284 284 285 285 286 286 286 287 288 288 288 289 291 292
281 281 282 282 282 282 281 281 281 281 282 282 282 281 282 281 281 281 281 281 281 281 281 281 281 282 282 283 283 283 284 284 284 285 285 286 286 287 287 288 288 289 290
281 281 281 281 281 281 281 281 281 281 281 281 281 281 281 281 281 280 280 280 280 280 280 280 280 281 281 281 281 282 282 283 283 284 285 285 286 286 286 287 287 287 289
280 281 281 280 280 281 281 281 280 281 281 281 281 280 280 280 280 280 280 280 280 280 279 279 280 280 280 280 280 281 281 282 282 283 283 285 285 285 285 286 286 287 287
280 280 281 281 280 280 280 280 280 280 280 280 280 280 280 280 280 279 279 279 279 279 279 279 279 279 279 279 280 280 280 281 281 282 283 284 285 285 284 285 286 286 287
280 280 280 280 280 280 280 280 279 279 279 279 279 279 279 279 279 279 279 279 279 279 279 278 279 278 278 279 279 279 280 280 280 282 282 283 283 284 284 284 285 285 286
279 279 279 279 279 279 279 279 279 278 278 278 278 278 278 278 278 279 278 279 279 279 278 278 278 278 278 278 279 279 279 280 280 281 282 282 283 283 283 284 284 285 285
280 279 278 278 278 278 278 278 278 278 277 277 277 277 277 277 277 278 278 278 278 278 278 278 278 278 278 278 279 279 279 280 281 281 282 282 282 282 283 284 284 284 284
Wind_Speed
18 17 16 15 15 14 15 15 14 13 14 13 13 11 9 8 9 11 14 15 16 17 18 19 20 20 20 19 19 20 22 23 18 26 26 24 22 19 18 22 22 20 22
17 16 16 15 15 15 15 15 15 14 14 14 13 12 12 11 9 8 11 12 15 16 18 19 20 19 21 21 21 22 23 24 24 25 25 24 26 24 24 24 25 23 27
16 15 14 15 15 15 15 15 15 14 14 14 14 13 13 12 11 11 10 10 12 15 17 18 20 19 21 21 21 22 23 24 25 25 26 24 23 22 23 23 25 27 28
16 15 14 15 15 15 15 15 15 14 14 14 14 14 14 13 11 14 13 13 12 12 14 16 18 19 21 21 21 22 22 23 23 24 24 24 23 22 22 21 23 24 27
17 15 14 15 15 15 15 15 15 14 14 14 14 14 14 13 13 17 16 15 15 15 14 14 15 17 20 22 21 21 22 22 23 23 22 23 22 21 22 20 23 25 26
16 16 16 16 16 15 16 17 17 17 16 16 16 16 16 15 18 19 18 17 16 15 15 15 14 15 15 18 20 23 27 25 24 23 22 21 24 23 21 22 23 20 11
16 16 17 18 18 18 18 17 18 18 18 18 18 17 18 18 18 21 20 18 17 15 16 15 15 14 15 15 16 19 21 25 31 32 29 27 25 24 24 23 24 25 26
17 18 18 19 19 19 18 18 18 17 18 17 17 17 17 17 19 20 21 16 16 16 16 16 16 16 15 16 19 19 19 20 20 23 29 34 33 30 28 28 27 28 29
19 20 21 21 21 21 20 18 18 18 17 17 17 17 17 17 17 19 19 16 16 18 17 16 16 17 17 21 23 21 21 21 20 22 25 28 30 34 34 30 28 25 23
20 22 21 20 19 19 18 18 17 16 16 16 16 15 14 15 16 21 22 20 20 21 20 19 18 17 19 26 23 22 24 23 24 25 25 25 25 26 26 33 33 29 27
19 18 17 16 17 15 15 15 15 14 13 13 14 13 14 16 18 20 21 20 21 22 21 20 19 20 22 25 27 26 25 27 31 30 28 27 25 25 25 26 29 33 30
17 15 15 15 14 13 13 13 13 14 13 14 14 14 15 17 19 23 23 23 23 21 22 20 21 27 29 28 27 26 26 28 26 25 25 24 24 24 25 25 28 30 33
14 14 13 12 12 12 12 13 13 15 15 16 16 16 17 19 21 23 24 24 21 22 21 24 25 25 22 23 22 25 25 22 22 23 23 24 25 26 27 26 27 28 32
12 12 12 12 12 12 12 13 13 16 15 16 16 17 17 20 22 24 24 22 24 23 22 19 17 19 19 21 23 24 25 26 25 22 22 23 23 24 24 24 24 24 26
10 10 11 11 11 10 10 12 13 14 15 16 16 17 18 20 23 25 25 23 26 23 19 19 21 21 22 24 25 25 26 27 26 29 29 29 24 24 24 23 24 23 24
8 9 10 9 10 10 10 8 9 12 12 14 16 19 16 18 21 23 23 19 23 22 21 22 23 23 23 24 24 25 24 25 26 26 27 27 28 29 24 24 23 21 21
7 8 7 8 9 9 10 9 10 10 9 11 14 17 20 19 22 25 25 20 21 21 22 21 21 21 22 23 24 24 24 25 26 25 25 26 27 28 30 30 25 24 22
5 6 6 5 7 7 8 8 9 10 11 12 12 15 18 19 18 21 23 20 22 23 22 21 21 22 21 22 23 24 26 27 27 27 27 28 27 26 27 26 28 29 27
4 4 4 4 4 5 6 6 7 8 9 10 12 13 17 18 16 17 19 19 19 20 21 21 22 23 23 23 24 24 25 25 27 28 28 28 29 29 29 28 28 30 31
4 4 3 3 3 4 4 5 6 7 9 10 11 13 18 17 17 17 17 17 18 18 19 20 21 22 23 24 25 26 27 27 27 28 28 30 31 30 30 31 29 28 28
5 4 3 3 3 4 5 5 6 7 8 10 10 11 14 13 14 15 16 16 16 17 19 20 21 22 22 23 25 26 27 28 28 31 32 31 31 31 32 31 30 30 30
6 5 4 4 4 4 6 6 7 7 9 10 11 11 12 11 11 12 13 15 16 16 17 19 21 21 22 24 26 27 27 28 29 33 35 33 34 32 33 32 32 30 30
6 6 6 6 6 6 7 7 8 8 10 11 12 12 13 13 14 14 15 15 16 17 18 19 20 22 22 23 25 27 27 29 31 35 36 34 36 31 32 33 33 33 31
7 6 7 7 7 7 7 9 10 10 11 11 12 13 13 15 15 16 17 17 18 18 18 19 20 22 24 26 27 28 27 32 37 36 37 35 36 31 33 32 33 35 35
7 8 8 8 9 9 10 10 11 11 12 12 13 14 16 16 17 17 18 18 19 20 21 22 22 23 25 26 27 28 30 36 36 39 36 36 34 34 34 34 35 35 36
9 10 10 10 11 11 12 13 13 13 13 14 15 16 17 18 19 19 19 20 20 22 25 23 25 26 27 28 27 29 34 34 37 38 37 34 32 33 35 36 35 36 35
Wind_Direction
27 25 25 25 24 21 19 14 10 6 6 7 4 1 351 321 284 265 259 258 253 252 248 246 245 245 244 242 241 239 238 240 250 257 254 254 256 256 255 263 263 259 258
14 14 15 15 14 14 11 7 4 2 1 0 0 1 360 353 343 308 283 270 264 259 256 253 254 252 248 246 244 243 242 240 243 258 259 259 255 253 257 258 255 255 255
8 6 6 7 5 2 0 358 357 356 355 356 358 357 355 353 351 347 333 306 283 273 267 261 258 255 252 248 247 246 246 247 248 251 262 258 258 256 257 258 257 253 254
355 357 357 357 355 353 351 350 349 348 347 349 350 351 351 349 349 345 336 324 310 297 284 274 267 261 258 257 254 252 252 251 250 250 256 262 258 256 251 255 259 254 256
344 343 344 340 339 337 337 337 337 338 338 338 338 339 341 343 346 348 336 324 316 311 303 293 283 275 266 262 262 260 255 254 254 254 255 259 260 255 243 246 252 258 258
336 335 335 335 335 334 331 327 324 324 322 322 322 323 323 324 323 337 339 325 313 311 312 310 305 300 295 291 286 273 260 264 259 259 260 257 261 263 260 248 253 261 270
334 333 333 334 332 331 328 326 324 321 319 318 318 318 315 314 321 327 326 319 310 307 310 312 314 311 314 309 302 293 283 273 260 259 266 263 265 264 269 266 256 255 257
333 332 331 330 329 328 327 326 324 323 321 321 321 322 320 319 326 330 330 315 305 302 305 309 310 313 319 329 321 306 294 282 274 266 257 260 264 266 263 266 268 270 269
334 331 330 326 323 324 325 326 325 323 321 321 322 324 324 325 334 341 342 326 311 306 303 307 311 312 313 328 324 310 300 293 288 282 278 276 270 263 260 265 262 262 265
333 329 327 326 325 323 323 324 322 323 321 324 326 329 330 336 350 347 342 332 325 327 324 315 312 310 319 321 318 312 303 299 298 295 291 286 281 273 271 254 254 255 258
331 330 330 330 330 332 331 331 331 333 335 336 336 337 341 352 356 1 355 344 340 331 316 308 304 314 320 316 311 303 298 302 299 294 291 286 281 275 267 260 252 245 250
334 337 340 341 346 346 347 354 0 5 358 2 0 1 360 356 354 355 349 342 335 325 316 313 314 316 310 307 306 303 305 304 299 292 290 290 288 284 278 269 263 260 254
347 350 355 2 5 8 14 15 20 19 21 20 19 16 13 10 4 359 356 352 351 340 323 309 303 308 325 317 314 313 309 308 305 302 298 296 295 294 291 286 279 270 263
351 357 3 13 19 25 32 31 32 26 24 22 18 17 11 9 7 5 4 1 358 355 354 4 2 354 356 354 353 348 347 349 335 314 303 300 302 302 295 293 288 283 274
349 353 2 10 13 22 31 33 32 32 27 22 18 15 13 8 6 7 9 9 8 5 11 15 13 10 4 1 358 357 354 353 350 339 338 323 309 306 296 296 293 290 283
344 349 3 6 14 20 20 24 34 29 27 25 24 20 12 9 6 9 10 14 15 17 23 20 14 9 7 1 357 352 351 350 347 341 340 338 335 329 303 300 294 287 286
338 346 350 359 5 9 13 16 9 12 16 20 20 18 16 8 6 7 8 11 15 18 21 14 10 6 3 359 356 352 346 344 344 342 340 339 336 335 330 326 297 287 285
322 337 345 349 358 359 1 3 3 2 357 1 5 8 7 8 7 6 9 11 12 13 12 6 0 357 354 354 352 349 346 341 342 343 341 340 336 333 328 326 319 324 291
306 305 330 341 351 357 357 357 358 354 353 353 354 360 1 360 2 6 9 13 5 2 359 356 353 350 347 346 345 343 343 343 340 337 338 337 335 331 325 321 317 314 312
287 293 304 306 326 344 349 350 348 347 347 348 348 351 352 354 358 0 2 0 358 353 348 346 345 343 342 342 341 339 337 337 338 336 332 331 330 327 324 321 317 311 305
267 273 289 285 297 308 321 328 331 333 334 333 333 332 339 341 342 344 344 345 343 342 339 338 336 337 337 336 337 336 335 333 334 335 331 329 327 325 323 319 315 313 305
254 261 267 278 290 303 310 310 315 314 314 318 321 326 330 332 331 328 330 330 330 331 330 330 329 330 332 333 333 333 330 330 329 330 327 327 324 324 323 318 317 313 312
250 254 259 266 276 284 295 300 306 308 312 315 317 319 324 323 324 324 322 323 323 323 325 325 323 322 323 327 328 327 324 325 325 326 324 324 322 324 323 318 316 316 312
254 259 264 266 266 279 284 289 289 291 295 304 310 313 315 315 312 315 317 316 318 319 320 319 319 318 318 319 321 322 321 322 323 322 325 322 323 320 322 318 316 313 313
259 262 268 273 275 279 281 281 282 291 297 300 303 304 305 306 306 305 306 307 309 311 314 315 314 314 316 316 316 318 319 321 319 320 322 322 318 321 321 319 316 317 315
265 266 268 271 273 276 278 282 283 288 293 296 297 297 298 298 298 299 302 303 305 306 308 307 307 310 311 312 314 316 319 319 318 320 320 320 320 322 320 316 318 320 316